| DS18B20 | SHTC3 | ||||||
|---|---|---|---|---|---|---|---|
| ID | Date d/m/Y & Time | data1 สูง | data2 ต่ำ | data3 นอก | temp pcb | hum pcb | Time |
| 2085 | 13/03/2026 12:42:38 | 30.0  | 29.2  | 30.2  | 29.4  | 68.4  | 12:42 |
| 2084 | 13/03/2026 12:37:56 | 29.9  | 29.1  | 30.5  | 29.4  | 68.3  | 12:37 |
| 2083 | 13/03/2026 12:33:14 | 29.9  | 29.1  | 30.4  | 29.4  | 68.4  | 12:33 |
| 2082 | 13/03/2026 12:28:32 | 29.8  | 29.1  | 30.4  | 29.2  | 68.5  | 12:28 |
| 2081 | 13/03/2026 12:23:50 | 29.8  | 29.1  | 30.2  | 29.4  | 68.5  | 12:23 |
| 2080 | 13/03/2026 12:19:09 | 29.7  | 29.1  | 30.0  | 29.4  | 68.8  | 12:19 |
| 2079 | 13/03/2026 12:14:26 | 29.6  | 29.1  | 30.0  | 29.2  | 68.8  | 12:14 |
| 2078 | 13/03/2026 12:09:45 | 29.6  | 29.1  | 29.8  | 29.2  | 68.8  | 12:09 |
| 2077 | 13/03/2026 12:05:04 | 29.5  | 29.1  | 29.5  | 29.1  | 68.8  | 12:05 |
| 2076 | 13/03/2026 12:00:22 | 29.5  | 29.1  | 29.2  | 29.3  | 68.8  | 12:00 |
| 2075 | 13/03/2026 11:55:40 | 29.4  | 29.1  | 28.9  | 29.2  | 68.8  | 11:55 |
| 2074 | 13/03/2026 11:50:58 | 29.4  | 29.1  | 29.2  | 29.1  | 68.9  | 11:50 |
| 2073 | 13/03/2026 11:46:17 | 29.4  | 29.1  | 28.7  | 29.2  | 68.8  | 11:46 |
| 2072 | 13/03/2026 11:41:35 | 29.4  | 29.1  | 28.7  | 29.2  | 68.8  | 11:41 |
| 2071 | 13/03/2026 11:36:54 | 29.4  | 29.1  | 28.9  | 29.2  | 68.6  | 11:36 |
| 2070 | 13/03/2026 11:32:12 | 29.4  | 29.1  | 28.9  | 29.2  | 68.6  | 11:32 |
| 2069 | 13/03/2026 11:27:30 | 29.4  | 29.2  | 28.7  | 29.4  | 68.4  | 11:27 |
| 2068 | 13/03/2026 11:22:49 | 29.5  | 29.2  | 28.0  | 29.2  | 68.2  | 11:22 |
| 2067 | 13/03/2026 11:18:08 | 29.6  | 29.2  | 27.7  | 29.4  | 68.0  | 11:18 |
| 2066 | 13/03/2026 11:13:26 | 29.7  | 29.2  | 27.9  | 29.3  | 67.7  | 11:13 |
| 2065 | 13/03/2026 11:08:45 | 29.8  | 29.2  | 29.3  | 29.3  | 67.5  | 11:08 |
| 2064 | 13/03/2026 11:04:03 | 29.8  | 29.1  | 29.9  | 29.4  | 67.6  | 11:04 |
| 2063 | 13/03/2026 10:59:22 | 29.7  | 29.1  | 30.0  | 29.4  | 67.5  | 10:59 |
| 2062 | 13/03/2026 10:54:40 | 29.8  | 29.1  | 30.0  | 29.2  | 67.3  | 10:54 |